KC1UIX-13 Weather Reports


Display with metric or nautical units.
time (UTC)temp
F
wind
direction
speed
MPH
gust
MPH
rain 1hr
in
rain 24hr
in
rain mn
in
humidity
%
barometer
mb
20260505100019 47 329 0.0 2.0 0.00 0.00 0.00 93 1009.0
20260505095018 47 338 0.0 2.0 0.00 0.00 0.00 93 1009.0
20260505094059 48 335 1.0 2.0 0.00 0.00 0.00 92 1009.0
20260505093057 48 295 1.0 3.0 0.00 0.00 0.00 91 1008.9
20260505092017 48 262 1.0 3.0 0.00 0.00 0.00 91 1008.9
20260505091020 48 223 1.0 3.0 0.00 0.00 0.00 90 1009.0
20260505090019 48 219 1.0 4.0 0.00 0.00 0.00 91 1009.0
20260505085100 48 223 1.0 6.0 0.00 0.00 0.00 91 1009.1
20260505084059 48 250 1.0 4.0 0.00 0.00 0.00 91 1009.2
20260505083018 48 247 1.0 3.0 0.00 0.00 0.00 90 1009.2
20260505082017 49 244 1.0 6.0 0.00 0.00 0.00 89 1009.3
20260505081018 49 219 2.0 4.0 0.00 0.00 0.00 89 1009.3
20260505080019 48 225 2.0 5.0 0.00 0.00 0.00 89 1009.3
20260505075019 49 256 1.0 3.0 0.00 0.00 0.00 88 1009.3
20260505074018 50 231 1.0 3.0 0.00 0.00 0.00 86 1009.3
20260505073059 50 231 2.0 5.0 0.00 0.00 0.00 83 1009.3
20260505072019 51 232 2.0 5.0 0.00 0.00 0.00 80 1009.2
20260505071018 51 233 3.0 7.0 0.00 0.00 0.00 80 1009.1
20260505070019 51 230 4.0 8.0 0.00 0.00 0.00 80 1009.1
20260505065039 50 236 4.0 7.0 0.00 0.00 0.00 83 1009.1
20260505064019 49 239 2.0 5.0 0.00 0.00 0.00 88 1009.0
20260505063019 49 232 1.0 5.0 0.00 0.00 0.00 87 1009.0
20260505062019 49 238 2.0 5.0 0.00 0.00 0.00 88 1009.1
20260505061040 49 235 2.0 4.0 0.00 0.00 0.00 87 1009.1
20260505060040 49 233 2.0 4.0 0.00 0.00 0.00 87 1009.3
20260505055017 49 233 2.0 5.0 0.00 0.00 0.00 86 1009.3
20260505054017 49 223 1.0 4.0 0.00 0.00 0.00 86 1009.3
20260505053040 49 236 1.0 5.0 0.00 0.00 0.00 86 1009.3
20260505052020 49 250 1.0 5.0 0.00 0.00 0.00 86 1009.3
20260505051020 50 236 1.0 4.0 0.00 0.00 0.00 84 1009.3
20260505041019 52 242 1.0 4.0 0.00 0.00 0.00 78 1009.0
20260505040019 53 223 2.0 5.0 0.00 0.00 0.00 76 1008.9
20260505035019 53 223 2.0 5.0 0.00 0.00 0.00 76 1008.8
20260505034019 54 229 3.0 7.0 0.00 0.00 0.00 74 1008.9
20260505033019 56 237 3.0 7.0 0.00 0.00 0.00 71 1008.8
20260505032100 58 232 4.0 8.0 0.00 0.00 0.00 62 1008.7
20260505031019 55 245 4.0 10.0 0.00 0.00 0.00 67 1008.7
20260505030020 53 224 2.0 6.0 0.00 0.00 0.00 75 1008.7
20260505025040 54 226 2.0 6.0 0.00 0.00 0.00 75 1008.7
20260505024020 53 235 4.0 8.0 0.00 0.00 0.00 77 1008.7
20260505023017 53 237 4.0 8.0 0.00 0.00 0.00 77 1008.7
20260505022018 53 234 4.0 9.0 0.00 0.00 0.00 77 1008.6
20260505021018 53 231 4.0 9.0 0.00 0.00 0.00 77 1008.5
20260505020021 53 229 4.0 9.0 0.00 0.00 0.00 77 1008.4
20260505015018 53 236 2.0 7.0 0.00 0.00 0.00 78 1008.1
20260505014018 52 239 2.0 5.0 0.00 0.00 0.00 78 1008.1
20260505013018 52 236 3.0 9.0 0.00 0.00 0.00 79 1007.9
20260505012038 52 238 3.0 6.0 0.00 0.00 0.00 78 1007.8
20260505011039 52 238 3.0 8.0 0.00 0.00 0.00 78 1007.7
20260505010039 53 255 2.0 5.0 0.00 0.00 0.00 77 1007.6
20260505005019 53 220 3.0 10.0 0.00 0.00 0.00 76 1007.5
20260505004040 55 211 1.0 7.0 0.00 0.00 0.00 74 1007.3
20260505003019 59 228 1.0 3.0 0.00 0.00 0.00 66 1007.1
20260505002020 64 227 1.0 5.0 0.00 0.00 0.00 48 1006.9
20260505001020 65 245 2.0 5.0 0.00 0.00 0.00 41 1006.6
20260505000017 65 232 1.0 4.0 0.00 0.00 0.00 40 1006.5
20260504235017 66 241 2.0 4.0 0.00 0.00 0.00 41 1006.4
20260504234017 67 236 2.0 5.0 0.00 0.00 0.00 40 1006.3
20260504233020 68 242 3.0 7.0 0.00 0.00 0.00 39 1006.2
20260504232020 70 252 2.0 5.0 0.00 0.00 0.00 36 1006.0
20260504231018 71 255 4.0 9.0 0.00 0.00 0.00 35 1005.9
20260504230018 71 250 4.0 8.0 0.00 0.00 0.00 34 1005.8
20260504225018 71 256 5.0 10.0 0.00 0.00 0.00 35 1005.7
20260504224018 71 251 5.0 8.0 0.00 0.00 0.00 35 1005.6
20260504223038 71 251 6.0 11.0 0.00 0.00 0.00 35 1005.6
20260504222018 72 242 4.0 10.0 0.00 0.00 0.00 35 1005.5
20260504221018 72 248 4.0 9.0 0.00 0.00 0.00 33 1005.5
20260504220019 71 249 5.0 9.0 0.00 0.00 0.00 34 1005.5
20260504215019 69 256 5.0 11.0 0.00 0.00 0.00 36 1005.6
20260504214019 69 256 5.0 10.0 0.00 0.00 0.00 36 1005.6
20260504213019 70 250 5.0 11.0 0.00 0.00 0.00 36 1005.6
20260504212019 70 248 5.0 12.0 0.00 0.00 0.00 35 1005.6
20260504211016 69 253 5.0 11.0 0.00 0.00 0.00 37 1005.6
20260504210017 71 254 7.0 13.0 0.00 0.00 0.00 35 1005.5
20260504205040 71 253 7.0 13.0 0.00 0.00 0.00 34 1005.5
20260504204020 71 252 8.0 12.0 0.00 0.00 0.00 34 1005.6
20260504203020 71 263 8.0 13.0 0.00 0.00 0.00 34 1005.6
20260504202018 71 254 7.0 13.0 0.00 0.00 0.00 35 1005.5
20260504201018 71 248 7.0 14.0 0.00 0.00 0.00 34 1005.5
20260504200018 71 244 6.0 12.0 0.00 0.00 0.00 35 1005.5
20260504195018 71 248 6.0 13.0 0.00 0.00 0.00 35 1005.6
20260504194018 70 253 8.0 16.0 0.00 0.00 0.00 35 1005.6
20260504193019 70 257 8.0 14.0 0.00 0.00 0.00 34 1005.7
20260504192018 69 260 7.0 13.0 0.00 0.00 0.00 35 1005.7
20260504191038 69 263 7.0 14.0 0.00 0.00 0.00 35 1005.7
20260504190019 68 266 9.0 16.0 0.00 0.00 0.00 35 1005.8
20260504185018 68 267 9.0 15.0 0.00 0.00 0.00 35 1005.9
20260504184039 70 256 9.0 14.0 0.00 0.00 0.00 35 1005.8
20260504183016 70 259 9.0 15.0 0.00 0.00 0.00 34 1005.7
20260504182020 70 262 10.0 20.0 0.00 0.00 0.00 34 1005.7
20260504181020 70 255 10.0 16.0 0.00 0.00 0.00 34 1005.7
20260504180020 69 254 9.0 14.0 0.00 0.00 0.00 34 1005.8
20260504175020 69 253 8.0 15.0 0.00 0.00 0.00 35 1005.8
20260504174017 68 246 9.0 14.0 0.00 0.00 0.00 36 1005.8
20260504173017 67 244 7.0 13.0 0.00 0.00 0.00 38 1005.9
20260504172017 67 240 6.0 13.0 0.00 0.00 0.00 38 1006.0
20260504171041 68 243 8.0 15.0 0.00 0.00 0.00 37 1006.1
20260504151017 61 229 2.0 6.0 0.00 0.00 0.00 52 1007.4
20260504141017 58 237 5.0 11.0 0.00 0.00 0.00 55 1008.3